Regional Weather Roundup
Issued by NWS

Home | Current Version | Previous Version | Graphics & Text | Print | Product List | Glossary On
Versions: 1 2 3 4 5 6 7 8 9 10 11 12 13 14 15 16 17 18 19 20 21 22 23 24 25 26 27 28 29 30 31 32 33 34 35 36 37 38 39 40 41 42 43 44 45 46 47 48 49
765
ASUS45 KBOU 241607
RWRCO

WEATHER ROUNDUP FOR COLORADO
NATIONAL WEATHER SERVICE DENVER/BOULDER CO
1000 AM MDT MON APR 24 2017

NOTE: "FAIR" INDICATES FEW OR NO CLOUDS BELOW 12000 FEET WITH NO
SIGNIFICANT WEATHER AND/OR OBSTRUCTIONS TO VISIBILITY.

COZ001>005-013-030-031-241700-
...NORTHWEST COLORADO...

CITY           SKY/WX    TMP DP  RH WIND       PRES   REMARKS
CRAIG          FAIR      50  39  66 E10       29.78F
HAYDEN         FAIR      45  34  65 E7        29.80F
MEEKER         FAIR      51  37  58 CALM      29.78F
MOUNT WERNER   NOT AVBL
STEAMBOAT SPGS PTSUNNY   43  35  75 E7        29.81F
WALDEN           N/A     43  30  61 SW10      29.84F
$$

COZ006>008-011-241700-
...WEST CENTRAL VALLEYS...

CITY           SKY/WX    TMP DP  RH WIND       PRES   REMARKS
GRAND JUNCTION FAIR      61  33  35 CALM      29.76F
MONTROSE       FAIR      60  27  28 CALM      29.81F
EAGLE          MOSUNNY   54  34  47 CALM      29.82F
RIFLE          FAIR      55  37  50 VRB3      29.78F
DELTA          FAIR      61  29  30 NE5       29.80F
NUCLA          FAIR      55  28  35 E5        29.85F
$$

COZ017>023-064>068-241700-
...SOUTHWEST COLORADO...

CITY           SKY/WX    TMP DP  RH WIND       PRES   REMARKS
DURANGO        FAIR      55  24  30 CALM      29.90F
CORTEZ         FAIR      57  27  31 CALM      29.85F
PAGOSA SPRINGS FAIR      54  17  23 S10       29.95S
TELLURIDE        N/A     49  17  27 SW9G21    29.96F
WOLF CREEK PAS FAIR      32  18  55 S18G29    30.11R WCI  20
$$

COZ009-010-012-014-032>034-037-058>063-241700-
...CENTRAL COLORADO...

CITY           SKY/WX    TMP DP  RH WIND       PRES   REMARKS
ASPEN          FAIR      48  32  53 CALM      29.84F
BUENA VISTA    FAIR      53  13  21 W9G29     29.83F
COPPER MTN     LGT SNOW  34  18  51 W20G36    29.97R WCI  22
BERTHOUD PASS  FAIR      27  14  59 NW33G40   29.92S WCI   9
COTTONWOOD PAS FAIR      48  10  21 W29G51    29.86F
GUNNISON       FAIR      54  20  26 W12G22    29.88S
KREMMLING      PTSUNNY   54  36  50 S6        29.83F
LEADVILLE      PTSUNNY   43  16  33 VRB5      29.89S
MONARCH PASS   PTSUNNY   32  19  59 W39G49    30.10R WCI  16
SALIDA         CLOUDY    56  17  21 W3        29.91S
SUNLIGHT       CLOUDY    34  27  75 SW10G18   29.97F WCI  26
WILKERSON PASS FAIR      39   9  28 SW13G35   29.94R
$$

COZ069>075-241700-
...SAN LUIS VALLEY/SANGRE DE CRISTO MOUNTAINS...

CITY           SKY/WX    TMP DP  RH WIND       PRES   REMARKS
ALAMOSA        FAIR      60  17  18 SW13G24   29.88S
LA VETA PASS   FAIR      46  18  31 S23       30.02S
SAGUACHE       FAIR      55  21  26 S9        29.86F
$$

COZ035-036-038>040-241700-
...NORTHERN COLORADO FRONT RANGE...

CITY           SKY/WX    TMP DP  RH WIND       PRES   REMARKS
DENVER INTL AP PTSUNNY   59  37  44 NE9       29.71S
DMNS CITY PARK   N/A     57  34  41 E10       29.70F
AURORA         PTSUNNY   58  37  44 E10       29.72F
FRONT RANGE AP MOSUNNY   59  37  44 NE7       29.73S
ERIE MUNI ARPT FAIR      59  37  43 E7        29.70F
BOULDER MUN AP FAIR      59  36  41 E5        29.69F
CENTENNIAL     PTSUNNY   58  35  42 E9        29.72S
BROOMFIELD     MOSUNNY   57  37  47 SE3       29.72S
FORT COLLINS   FAIR      61  33  35 N8        29.68F
LONGMONT       FAIR      62  40  44 SE7       29.70F
$$

COZ041-046-047-076>085-087-088-241700-
...PIKES PEAK/PALMER DIVIDE AND SOUTHERN FOOTHILLS...

CITY           SKY/WX    TMP DP  RH WIND       PRES   REMARKS
COLO. SPRINGS  FAIR      64  24  21 SE10      29.73S
A. F. ACADEMY  FAIR      63  23  22 SE14      29.71F
SCHRIEVER AFB  FAIR      62  26  24 S10       29.74S
ELLICOTT       FAIR     N/A N/A N/A S6        29.72S
FALCON         FAIR      61  20  20 SW9G21    29.76S
FORT CARSON    FAIR      66  23  19 W9G20     29.70F
LIMON          FAIR      59  38  45 N17       29.72S
MONUMENT HILL  FAIR      57  25  28 CALM      29.77F
TRINIDAD       FAIR      69  20  15 NE10      29.74S
$$

COZ042>045-048>051-090-091-241700-
...NORTHEAST COLORADO...

CITY           SKY/WX    TMP DP  RH WIND       PRES   REMARKS
GREELEY ARPT   FAIR      61  32  33 N24       29.68R
AKRON          FAIR      61  33  35 N24       29.68R
BURLINGTON     NOT AVBL
WRAY           NOT AVBL
STERLING       FAIR      63  36  36 N22G29    29.64S
HOLYOKE        FAIR      64  37  36 NW26G32   29.62F
FORT MORGAN    FAIR      63  28  26 NW23G30   29.68S
$$

COZ086-089-092>099-241700-
...SOUTHEAST COLORADO...

CITY           SKY/WX    TMP DP  RH WIND       PRES   REMARKS
PUEBLO         FAIR      68  34  28 SE13      29.68S
LA JUNTA       FAIR      67  38  34 SE10      29.68S
LAMAR          FAIR      67  39  35 NE5       29.65S
SPRINGFIELD      N/A     71  33  24 N15       29.69S
$$




USA.gov is the U.S. government's official web portal to all federal, state and local government web resources and services.